This is the latest recevied weather packets stored in our database for station/object KC0AFB. If no packets are shown the sender has not sent any weather packets the latest 10 day(s).
| Time | Temp. | Humidity | Pressure | Rain* | Wind** | Luminosity | Snow |
|---|---|---|---|---|---|---|---|
| 1778050129 | -1.67° C | 70% | 1017.7 hPa | 0 mm | - | 0 W/m² | - |
| 1778049824 | -1.67° C | 69% | 1017.4 hPa | 0 mm | - | 0 W/m² | - |
| 1778049522 | -1.11° C | 69% | 1017.5 hPa | 0 mm | - | 0 W/m² | - |
| 1778049220 | -1.11° C | 69% | 1017.4 hPa | 0 mm | - | 0 W/m² | - |
| 1778048918 | -1.11° C | 69% | 1017.6 hPa | 0 mm | - | 0 W/m² | - |
| 1778048615 | -1.11° C | 68% | 1017.4 hPa | 0 mm | - | 0 W/m² | - |
| 1778048311 | -1.11° C | 67% | 1017.3 hPa | 0 mm | - | 0 W/m² | - |
| 1778048008 | -1.11° C | 68% | 1017.4 hPa | 0 mm | - | 0 W/m² | - |
| 1778047707 | -1.67° C | 68% | 1017.5 hPa | 0 mm | - | 0 W/m² | - |
| 1778047404 | -1.67° C | 67% | 1017.5 hPa | 0 mm | - | 0 W/m² | - |
| 1778047101 | -1.11° C | 67% | 1017.3 hPa | 0 mm | - | 0 W/m² | - |
| 1778046798 | -1.11° C | 66% | 1017.4 hPa | 0 mm | - | 0 W/m² | - |
| 1778046495 | -0.56° C | 66% | 1017.5 hPa | 0 mm | - | 0 W/m² | - |
| 1778046191 | -0.56° C | 64% | 1017.3 hPa | 0 mm | - | 0 W/m² | - |
| 1778045888 | 0° C | 63% | 1017.3 hPa | 0 mm | - | 0 W/m² | - |
| 1778045587 | 0° C | 63% | 1017.2 hPa | 0 mm | - | 0 W/m² | - |
| 1778045284 | 0° C | 63% | 1017.2 hPa | 0 mm | - | 0 W/m² | - |
| 1778044983 | 0° C | 62% | 1017.1 hPa | 0 mm | - | 0 W/m² | - |
| 1778044679 | 0° C | 62% | 1017.3 hPa | 0 mm | - | 0 W/m² | - |
| 1778044376 | 0° C | 61% | 1017.3 hPa | 0 mm | - | 0 W/m² | - |
| 1778044074 | 0° C | 61% | 1017.3 hPa | 0 mm | - | 0 W/m² | - |
| 1778043771 | 0° C | 62% | 1017.2 hPa | 0 mm | - | 0 W/m² | - |
| 1778043467 | 0° C | 62% | 1017.1 hPa | 0 mm | - | 0 W/m² | - |
| 1778043164 | -0.56° C | 63% | 1017.1 hPa | 0 mm | - | 0 W/m² | - |
| 1778042861 | 0° C | 62% | 1017.2 hPa | 0 mm | - | 0 W/m² | - |
* Rain latest hour (hover to see other rain measurements)
** Current wind speed in m/s (hover to see current wind gust speed)